Wheaton, MN

5:53 PM CST on February 08, 2016 (GMT -0600)
Wheaton Municipal

Weather History for KETH - August, 2013

Change the Weather History Date:

Friday, August 9, 2013

  Actual Average Record
Temperature  
Mean Temperature 64 °F -  
Max Temperature 73 °F 84 °F 102 °F (1958)
Min Temperature 55 °F 58 °F 48 °F (1972)
Degree Days  
Heating Degree Days 1    
Growing Degree Days 14 (Base 50)    
Moisture  
Dew Point 55 °F    
Average Humidity 73    
Maximum Humidity 100    
Minimum Humidity 50    
Precipitation  
Precipitation 0.00 in - - ()
Sea Level Pressure  
Sea Level Pressure 30.12 in    
Wind  
Wind Speed 5 mph (WNW)    
Max Wind Speed 14 mph    
Max Gust Speed 23 mph    
Visibility 10 miles    
Events      
Averages and records for this station are not official NWS values.
T = Trace of Precipitation, MM = Missing Value Source: NWS Daily Summary

Daily Weather History Graph

Daily Weather History Graph

Search for Another Location

Airport or City:

Trip Planner

Search our weather history database for the weather conditions in past years. The results will help you decide how hot, cold, wet, or windy it might be!

Date:

Astronomy

Aug. 09, 2013 Rise Set
Actual Time 6:19 AM CDT 8:43 PM CDT
Civil Twilight 5:45 AM CDT 9:16 PM CDT
Nautical Twilight 5:04 AM CDT 9:57 PM CDT
Astronomical Twilight 4:17 AM CDT 10:44 PM CDT
Moon 9:18 AM CDT (8/9) 9:39 PM CDT (8/9)
Length of Visible Light 15h 30m
Length of Day
14h 24m
Waxing Crescent, 8% of the Moon is Illuminated
Aug 9
Waxing Crescent
Aug 14
First Quarter
Aug 20
Full
Aug 28
Last Quarter
Sep 5
New

Hourly Weather History & Observations

Time (CDT) Temp. Dew Point Humidity Pressure Visibility Wind Dir Wind Speed Gust Speed Precip Events Conditions
12:15 AM 60.8 °F 55.4 °F 82% 30.06 in 10.0 mi West 3.5 mph - N/A   Clear
12:34 AM 60.8 °F 55.4 °F 82% 30.06 in 10.0 mi WSW 4.6 mph - N/A   Clear
12:54 AM 60.8 °F 55.4 °F 82% 30.06 in 10.0 mi WSW 5.8 mph - N/A   Clear
1:14 AM 60.8 °F 55.4 °F 82% 30.06 in 10.0 mi West 3.5 mph - N/A   Clear
1:51 AM 57.2 °F 55.4 °F 94% 30.06 in 10.0 mi West 3.5 mph - N/A   Clear
1:54 AM 57.2 °F 55.4 °F 94% 30.06 in 10.0 mi Calm Calm - N/A   Clear
2:15 AM 59.0 °F 57.2 °F 94% 30.07 in 10.0 mi West 3.5 mph - N/A   Clear
2:34 AM 57.2 °F 57.2 °F 100% 30.07 in 10.0 mi Calm Calm - N/A   Clear
2:55 AM 57.2 °F 55.4 °F 94% 30.07 in 10.0 mi Calm Calm - N/A   Clear
3:14 AM 57.2 °F 57.2 °F 100% 30.08 in 10.0 mi Calm Calm - N/A   Clear
3:35 AM 57.2 °F 55.4 °F 94% 30.08 in 10.0 mi WNW 3.5 mph - N/A   Clear
3:55 AM 57.2 °F 55.4 °F 94% 30.07 in 10.0 mi NW 4.6 mph - N/A   Clear
4:15 AM 57.2 °F 55.4 °F 94% 30.07 in 10.0 mi NW 4.6 mph - N/A   Clear
4:34 AM 57.2 °F 55.4 °F 94% 30.08 in 10.0 mi WNW 4.6 mph - N/A   Clear
4:54 AM 57.2 °F 55.4 °F 94% 30.08 in 10.0 mi NW 5.8 mph - N/A   Clear
5:14 AM 57.2 °F 55.4 °F 94% 30.09 in 10.0 mi WNW 3.5 mph - N/A   Clear
5:34 AM 57.2 °F 55.4 °F 94% 30.09 in 10.0 mi WNW 3.5 mph - N/A   Clear
5:55 AM 57.2 °F 55.4 °F 94% 30.10 in 10.0 mi West 3.5 mph - N/A   Clear
6:15 AM 55.4 °F 53.6 °F 94% 30.10 in 10.0 mi WNW 3.5 mph - N/A   Clear
6:34 AM 55.4 °F 53.6 °F 94% 30.11 in 10.0 mi WSW 3.5 mph - N/A   Clear
6:54 AM 55.4 °F 53.6 °F 94% 30.11 in 10.0 mi West 3.5 mph - N/A   Clear
7:14 AM 57.2 °F 55.4 °F 94% 30.11 in 10.0 mi Calm Calm - N/A   Clear
7:34 AM 59.0 °F 55.4 °F 88% 30.11 in 10.0 mi Calm Calm - N/A   Clear
7:54 AM 60.8 °F 55.4 °F 82% 30.12 in 10.0 mi Calm Calm - N/A   Clear
8:14 AM 60.8 °F 55.4 °F 82% 30.12 in 10.0 mi WNW 3.5 mph - N/A   Clear
8:34 AM 62.6 °F 55.4 °F 77% 30.13 in 10.0 mi NW 3.5 mph - N/A   Clear
8:55 AM 62.6 °F 55.4 °F 77% 30.13 in 10.0 mi NW 3.5 mph - N/A   Clear
9:14 AM 64.4 °F 55.4 °F 73% 30.14 in 10.0 mi West 4.6 mph - N/A   Clear
9:34 AM 66.2 °F 55.4 °F 68% 30.14 in 10.0 mi NW 8.1 mph - N/A   Clear
9:55 AM 68.0 °F 53.6 °F 60% 30.14 in 10.0 mi WNW 10.4 mph - N/A   Clear
10:14 AM 68.0 °F 53.6 °F 60% 30.15 in 10.0 mi WNW 9.2 mph - N/A   Clear
10:34 AM 69.8 °F 51.8 °F 53% 30.15 in 10.0 mi WNW 11.5 mph - N/A   Clear
10:54 AM 69.8 °F 53.6 °F 56% 30.15 in 10.0 mi WNW 11.5 mph - N/A   Clear
11:14 AM 69.8 °F 53.6 °F 56% 30.15 in 10.0 mi NW 9.2 mph 16.1 mph N/A   Clear
11:34 AM 69.8 °F 53.6 °F 56% 30.15 in 10.0 mi NW 10.4 mph - N/A   Scattered Clouds
11:54 AM 71.6 °F 53.6 °F 53% 30.15 in 10.0 mi WNW 11.5 mph 18.4 mph N/A   Scattered Clouds
12:14 PM 71.6 °F 53.6 °F 53% 30.14 in 10.0 mi WNW 9.2 mph 16.1 mph N/A   Clear
12:34 PM 71.6 °F 53.6 °F 53% 30.14 in 10.0 mi WNW 12.7 mph - N/A   Clear
12:55 PM 71.6 °F 53.6 °F 53% 30.13 in 10.0 mi West 13.8 mph 17.3 mph N/A   Clear
1:14 PM 71.6 °F 53.6 °F 53% 30.13 in 10.0 mi WNW 11.5 mph 18.4 mph N/A   Clear
1:34 PM 73.4 °F 53.6 °F 50% 30.13 in 10.0 mi WNW 9.2 mph - N/A   Scattered Clouds
1:54 PM 73.4 °F 55.4 °F 53% 30.12 in 10.0 mi WNW 12.7 mph 17.3 mph N/A   Scattered Clouds
2:15 PM 73.4 °F 53.6 °F 50% 30.12 in 10.0 mi WNW 11.5 mph 20.7 mph N/A   Scattered Clouds
2:34 PM 73.4 °F 53.6 °F 50% 30.12 in 10.0 mi WNW 13.8 mph 23.0 mph N/A   Scattered Clouds
2:54 PM 73.4 °F 55.4 °F 53% 30.12 in 10.0 mi WNW 13.8 mph 17.3 mph N/A   Scattered Clouds
3:14 PM 71.6 °F 53.6 °F 53% 30.11 in 10.0 mi WNW 11.5 mph 19.6 mph N/A   Scattered Clouds
3:34 PM 71.6 °F 53.6 °F 53% 30.12 in 10.0 mi WNW 11.5 mph - N/A   Scattered Clouds
3:54 PM 71.6 °F 55.4 °F 57% 30.12 in 10.0 mi NW 8.1 mph 16.1 mph N/A   Mostly Cloudy
4:14 PM 73.4 °F 55.4 °F 53% 30.11 in 10.0 mi WNW 10.4 mph - N/A   Mostly Cloudy
4:34 PM 73.4 °F 55.4 °F 53% 30.12 in 10.0 mi NNW 9.2 mph 16.1 mph N/A   Mostly Cloudy
4:54 PM 73.4 °F 55.4 °F 53% 30.12 in 10.0 mi NW 8.1 mph - N/A   Mostly Cloudy
5:15 PM 73.4 °F 55.4 °F 53% 30.12 in 10.0 mi NNW 12.7 mph 17.3 mph N/A   Mostly Cloudy
5:35 PM 71.6 °F 55.4 °F 57% 30.12 in 10.0 mi NNW 12.7 mph 17.3 mph N/A   Mostly Cloudy
5:55 PM 73.4 °F 55.4 °F 53% 30.12 in 10.0 mi NNW 11.5 mph 16.1 mph N/A   Overcast
6:14 PM 71.6 °F 55.4 °F 57% 30.12 in 10.0 mi NNW 9.2 mph - N/A   Mostly Cloudy
6:34 PM 71.6 °F 55.4 °F 57% 30.12 in 10.0 mi NNW 11.5 mph 17.3 mph N/A   Mostly Cloudy
6:54 PM 71.6 °F 55.4 °F 57% 30.13 in 10.0 mi NW 9.2 mph 17.3 mph N/A   Scattered Clouds
7:15 PM 71.6 °F 55.4 °F 57% 30.13 in 10.0 mi NW 10.4 mph - N/A   Clear
7:35 PM 69.8 °F 55.4 °F 60% 30.13 in 10.0 mi NNW 5.8 mph - N/A   Clear
7:55 PM 69.8 °F 55.4 °F 60% 30.13 in 10.0 mi NNW 6.9 mph - N/A   Clear
8:14 PM 68.0 °F 55.4 °F 64% 30.14 in 10.0 mi NW 3.5 mph - N/A   Scattered Clouds
8:34 PM 66.2 °F 55.4 °F 68% 30.15 in 10.0 mi WNW 3.5 mph - N/A   Clear
8:54 PM 64.4 °F 55.4 °F 73% 30.15 in 10.0 mi NW 3.5 mph - N/A   Clear
9:14 PM 62.6 °F 55.4 °F 77% 30.16 in 10.0 mi NW 3.5 mph - N/A   Clear
9:34 PM 62.6 °F 55.4 °F 77% 30.16 in 7.0 mi Calm Calm - N/A   Clear
9:55 PM 60.8 °F 55.4 °F 82% 30.17 in 10.0 mi Calm Calm - N/A   Clear
10:14 PM 60.8 °F 57.2 °F 88% 30.18 in 10.0 mi Calm Calm - N/A   Clear
10:34 PM 60.8 °F 55.4 °F 82% 30.18 in 10.0 mi Calm Calm - N/A   Clear
10:54 PM 59.0 °F 55.4 °F 88% 30.18 in 10.0 mi Calm Calm - N/A   Clear
11:14 PM 59.0 °F 55.4 °F 88% 30.18 in 10.0 mi Calm Calm - N/A   Clear
11:34 PM 57.2 °F 55.4 °F 94% 30.18 in 10.0 mi Calm Calm - N/A   Clear
11:55 PM 57.2 °F 55.4 °F 94% 30.19 in 10.0 mi Calm Calm - N/A   Clear